Location: Chemnitz
(49.5500°N, 11.5830°E)
Time: 12:45:54
(UTC+01:00)

N. Korean satellite - Visible Passes

Search period start: 25 February 2018 00:00
Search period end: 07 March 2018 00:00
Orbit: 459 x 514 km, 97.2° (Epoch: 24 February)

Date Brightness Start Highest point End Pass type
(mag) Time Alt. Az. Time Alt. Az. Time Alt. Az.
25 Feb 9.4 06:17:30 10° NE 06:20:39 25° E 06:23:47 10° SSE visible
25 Feb 8.5 18:31:05 10° SSW 18:34:17 35° W 18:37:35 10° NNW visible
26 Feb 10.2 05:54:32 10° NE 05:56:42 15° E 05:58:53 10° SE visible
27 Feb 10.3 19:19:28 10° WSW 19:20:38 11° W 19:21:49 10° WNW visible
28 Feb 9.6 18:53:58 10° SW 18:56:38 20° W 18:59:21 10° NW visible
01 Mar 9.5 06:15:58 10° NE 06:19:06 25° E 06:22:14 10° SSE visible
01 Mar 8.4 18:29:27 10° SSW 18:32:43 37° W 18:36:04 10° NNW visible
02 Mar 10.3 05:53:00 10° NE 05:55:09 15° E 05:57:17 10° SE visible
03 Mar 10.3 19:17:38 10° WSW 19:19:02 12° W 19:20:26 10° WNW visible
04 Mar 9.6 18:52:16 10° SW 18:55:01 21° W 18:57:50 10° NW visible
05 Mar 9.6 06:14:23 10° NE 06:17:31 24° E 06:20:39 10° SSE visible
05 Mar 8.4 18:27:46 10° SSW 18:31:06 38° W 18:34:30 10° NNW visible
06 Mar 10.3 05:51:28 10° NE 05:53:33 14° E 05:55:38 10° ESE visible
